GW0305 Weather Reports


time (UTC)temp
C
wind
direction
speed
KPH
gust
KPH
rain 1hr
cm
rain 24hr
cm
rain mn
cm
humidity
%
barometer
mb
20260507225055 13 203 3.2 25.7 0.00 0.03 2.34 65 1018.1
20260507224036 13 293 9.7 25.7 0.00 0.03 2.34 65 1017.9
20260507223524 13 225 6.4 17.7 0.00 0.03 2.34 66 1017.9
20260507223015 13 248 6.4 17.7 0.00 0.03 2.34 67 1017.6
20260507222505 13 0 3.2 11.3 0.00 0.03 2.34 68 1017.3
20260507221956 13 225 3.2 17.7 0.00 0.03 2.34 69 1016.9
20260507221444 13 203 6.4 17.7 0.00 0.03 2.34 69 1016.6
20260507220934 13 293 3.2 17.7 0.00 0.03 2.34 68 1016.5
20260507220425 13 225 6.4 12.9 0.00 0.03 2.34 69 1016.4
20260507215914 13 248 3.2 12.9 0.00 0.03 2.34 69 1016.5
20260507214854 13 248 3.2 12.9 0.00 0.03 2.34 68 1016.3
20260507214344 13 225 3.2 12.9 0.00 0.03 2.34 68 1016.1
20260507213834 13 180 3.2 11.3 0.00 0.03 2.34 68 1015.8
20260507213324 13 270 4.8 11.3 0.00 0.03 2.34 67 1016.0
20260507212814 13 0 4.8 14.5 0.00 0.03 2.34 67 1016.3
20260507212306 13 225 3.2 17.7 0.00 0.03 2.34 67 1016.3
20260507211752 13 203 1.6 17.7 0.00 0.03 2.34 67 1016.5
20260507210733 13 225 3.2 9.7 0.00 0.03 2.34 67 1016.4
20260507210222 13 270 4.8 14.5 0.00 0.03 2.34 67 1016.5
20260507205659 13 158 4.8 17.7 0.00 0.03 2.34 67 1016.1
20260507205202 13 113 6.4 17.7 0.00 0.03 2.34 67 1016.3
20260507204640 14 225 6.4 20.9 0.00 0.03 2.34 67 1016.4
20260507204128 14 225 9.7 20.9 0.00 0.03 2.34 66 1016.4
20260507202558 14 270 9.7 29.0 0.00 0.03 2.34 66 1016.7
20260507202047 14 225 6.4 29.0 0.00 0.03 2.34 67 1016.9
20260507201538 14 225 12.9 27.4 0.00 0.03 2.34 66 1016.7
20260507200008 14 225 9.7 24.1 0.00 0.03 2.34 66 1016.4
20260507195458 14 225 6.4 24.1 0.00 0.03 2.34 66 1016.0
20260507194438 14 180 6.4 22.5 0.00 0.03 2.34 66 1015.8
20260507193927 15 225 9.7 22.5 0.00 0.03 2.34 66 1015.6
20260507193417 15 270 9.7 22.5 0.00 0.03 2.34 65 1015.4
20260507192906 15 158 4.8 17.7 0.00 0.03 2.34 64 1015.4
20260507191847 15 113 6.4 17.7 0.00 0.03 2.34 65 1015.4
20260507191336 15 225 8.0 17.7 0.00 0.03 2.34 65 1014.8
20260507190828 15 270 6.4 17.7 0.00 0.03 2.34 64 1014.8
20260507190316 15 180 3.2 12.9 0.00 0.03 2.34 64 1014.5
20260507185807 15 248 3.2 27.4 0.00 0.03 2.34 63 1015.1
20260507185255 15 225 1.6 27.4 0.00 0.03 2.34 62 1015.3
20260507184746 15 225 4.8 25.7 0.00 0.03 2.34 61 1015.0
20260507184236 15 225 8.0 20.9 0.00 0.03 2.34 61 1015.2
20260507183727 15 248 3.2 27.4 0.00 0.03 2.34 60 1015.9
20260507183216 15 158 6.4 27.4 0.00 0.03 2.34 60 1015.6
20260507182713 15 225 3.2 17.7 0.00 0.03 2.34 61 1016.1
20260507182152 15 248 8.0 24.1 0.00 0.03 2.34 61 1016.2
20260507181642 15 203 3.2 24.1 0.00 0.03 2.34 61 1016.7
20260507181131 15 248 11.3 24.1 0.00 0.03 2.34 60 1016.7
20260507180625 15 248 8.0 25.7 0.00 0.03 2.34 61 1016.7
20260507175605 15 203 6.4 24.1 0.00 0.03 2.34 60 1016.7
20260507175055 15 248 12.9 24.1 0.00 0.03 2.34 60 1016.8
20260507173524 15 158 11.3 29.0 0.00 0.03 2.34 59 1017.0
20260507173014 15 180 6.4 25.7 0.00 0.03 2.34 59 1017.3
20260507172504 15 23 8.0 25.7 0.00 0.03 2.34 60 1017.0
20260507171954 15 248 4.8 37.0 0.00 0.03 2.34 59 1016.9
20260507171444 15 225 12.9 37.0 0.00 0.03 2.34 59 1016.8
20260507170934 15 270 12.9 29.0 0.00 0.03 2.34 60 1016.6
20260507170424 15 203 8.0 27.4 0.00 0.03 2.34 60 1016.4
20260507165913 15 0 12.9 27.4 0.00 0.03 2.34 60 1016.7
20260507165404 15 248 11.3 25.7 0.00 0.03 2.34 60 1016.8
20260507164853 15 338 4.8 27.4 0.00 0.03 2.34 61 1016.7
20260507164343 15 248 14.5 27.4 0.00 0.03 2.34 60 1016.3
20260507163833 15 248 14.5 25.7 0.00 0.03 2.34 60 1016.5
20260507163323 15 248 6.4 29.0 0.00 0.03 2.34 61 1016.4
20260507162813 15 293 11.3 29.0 0.00 0.03 2.34 61 1016.6
20260507162307 15 248 8.0 22.5 0.00 0.03 2.34 62 1016.3
20260507161752 15 270 11.3 22.5 0.00 0.03 2.34 61 1016.5
20260507161243 15 203 16.1 22.5 0.00 0.03 2.34 62 1016.7
20260507160222 14 225 6.4 14.5 0.00 0.03 2.34 65 1016.8
20260507155712 14 225 4.8 14.5 0.00 0.03 2.34 65 1016.8
20260507155202 14 270 3.2 17.7 0.00 0.03 2.34 65 1016.8
20260507154651 14 270 6.4 17.7 0.00 0.03 2.34 65 1017.2
20260507154141 14 203 3.2 17.7 0.00 0.03 2.34 66 1017.6
20260507153123 13 270 3.2 12.9 0.00 0.03 2.34 66 1017.4
20260507152612 13 293 6.4 12.9 0.00 0.03 2.34 66 1017.2
20260507152100 13 270 6.4 11.3 0.00 0.03 2.34 67 1017.2
20260507151551 13 225 6.4 11.3 0.00 0.03 2.34 66 1017.1
20260507151041 14 225 3.2 17.7 0.00 0.03 2.34 66 1017.3
20260507150538 14 315 6.4 17.7 0.00 0.03 2.34 65 1017.4
20260507150020 14 248 4.8 17.7 0.00 0.03 2.34 66 1017.3
20260507145001 14 225 6.4 22.5 0.00 0.03 2.34 65 1016.8
20260507144451 14 293 9.7 22.5 0.00 0.03 2.34 65 1017.3
20260507143940 14 270 8.0 20.9 0.00 0.03 2.34 66 1017.2
20260507143430 14 270 6.4 20.9 0.00 0.03 2.34 65 1017.2
20260507142921 14 23 8.0 20.9 0.00 0.03 2.34 65 1016.9
20260507142410 14 180 8.0 12.9 0.00 0.03 2.34 65 1017.0
20260507141900 14 248 6.4 12.9 0.00 0.03 2.34 65 1017.2
20260507141350 14 270 6.4 11.3 0.00 0.03 2.34 66 1017.8
20260507140843 14 293 3.2 11.3 0.00 0.03 2.34 68 1017.3
20260507140329 14 180 3.2 11.3 0.00 0.03 2.34 69 1017.2
20260507135819 14 203 6.4 11.3 0.00 0.03 2.34 68 1017.2
20260507135309 14 203 4.8 11.3 0.00 0.03 2.34 68 1017.4
20260507134249 14 248 3.2 12.9 0.00 0.03 2.34 69 1017.4
20260507133741 14 293 6.4 12.9 0.00 0.03 2.34 69 1017.8
20260507133229 14 248 3.2 11.3 0.00 0.03 2.34 69 1017.9
20260507132719 14 248 0.0 11.3 0.00 0.03 2.34 69 1017.7
20260507132209 14 158 3.2 11.3 0.00 0.03 2.34 68 1017.5
20260507131658 14 248 3.2 11.3 0.00 0.03 2.34 68 1017.4
20260507131149 14 270 6.4 14.5 0.00 0.03 2.34 69 1017.1
20260507130638 14 270 3.2 14.5 0.00 0.03 2.34 70 1016.8
20260507130128 14 225 3.2 11.3 0.00 0.03 2.34 70 1016.7
20260507125618 14 225 1.6 11.3 0.00 0.03 2.34 71 1016.5
20260507124558 14 225 3.2 14.5 0.00 0.03 2.34 70 1017.0
20260507124047 15 248 3.2 11.3 0.00 0.03 2.34 70 1016.3
20260507123538 15 158 3.2 11.3 0.00 0.03 2.34 70 1016.0
20260507123027 15 203 4.8 17.7 0.00 0.03 2.34 69 1015.9
20260507122517 14 270 4.8 17.7 0.00 0.03 2.34 70 1016.1
20260507122008 14 225 3.2 14.5 0.00 0.03 2.34 72 1016.1
20260507121458 14 248 3.2 14.5 0.00 0.03 2.34 72 1016.1
20260507120436 14 248 3.2 22.5 0.00 0.03 2.34 72 1015.4
20260507115927 14 315 3.2 20.9 0.00 0.03 2.34 73 1015.2
20260507115417 14 203 4.8 20.9 0.00 0.03 2.34 73 1015.1
20260507114907 14 248 9.7 20.9 0.00 0.03 2.34 74 1015.0
20260507114356 14 248 8.0 17.7 0.00 0.03 2.34 74 1014.7
20260507113336 14 248 8.0 17.7 0.00 0.03 2.34 76 1013.6
20260507112826 15 293 6.4 17.7 0.00 0.03 2.34 75 1013.5
20260507112315 15 225 6.4 17.7 0.00 0.03 2.34 74 1013.4
20260507111806 15 203 6.4 17.7 0.00 0.03 2.34 74 1013.6
20260507110745 15 315 6.4 22.5 0.00 0.03 2.34 78 1013.8
20260507105726 15 225 8.0 25.7 0.00 0.03 2.34 80 1013.8
20260507105215 15 203 4.8 24.1 0.00 0.03 2.34 80 1013.6
20260507104705 15 225 11.3 29.0 0.00 0.03 2.34 79 1013.5
20260507104155 15 248 6.4 29.0 0.00 0.03 2.34 78 1013.5
20260507103644 15 45 12.9 25.7 0.00 0.03 2.34 78 1014.2
20260507103135 15 203 6.4 24.1 0.00 0.03 2.34 78 1014.6
20260507102624 15 203 12.9 25.7 0.00 0.03 2.34 78 1014.5
20260507102114 16 248 12.9 25.7 0.00 0.03 2.34 79 1014.3
20260507101607 16 113 11.3 24.1 0.00 0.03 2.34 80 1014.7
20260507101054 16 135 12.9 24.1 0.00 0.03 2.34 82 1014.8
20260507100546 16 180 6.4 22.5 0.00 0.03 2.34 85 1014.4
20260507100035 16 135 9.7 22.5 0.00 0.03 2.34 87 1014.6
20260507095524 16 68 9.7 25.7 0.00 0.03 2.34 88 1014.4
20260507095015 16 203 6.4 25.7 0.00 0.03 2.34 88 1014.7
20260507093954 16 270 9.7 25.7 0.00 0.03 2.34 88 1014.6
20260507093443 16 225 6.4 25.7 0.00 0.03 2.34 89 1014.8
20260507092934 16 45 6.4 17.7 0.00 0.03 2.34 90 1015.3
20260507092424 16 203 3.2 17.7 0.00 0.03 2.34 91 1015.6
20260507091913 16 248 3.2 22.5 0.00 0.03 2.34 90 1015.9
20260507091403 16 45 11.3 22.5 0.00 0.03 2.34 90 1016.6
20260507090853 16 270 6.4 20.9 0.00 0.03 2.34 89 1015.6
20260507090343 16 248 3.2 14.5 0.00 0.03 2.34 89 1015.4
20260507085832 16 203 3.2 17.7 0.00 0.03 2.34 89 1015.9
20260507085323 17 203 4.8 17.7 0.00 0.03 2.34 88 1015.8
20260507084812 16 180 4.8 17.7 0.00 0.03 2.34 89 1015.4
20260507084302 17 225 4.8 20.9 0.00 0.03 2.34 89 1015.2
20260507083753 17 203 6.4 24.1 0.00 0.03 2.34 88 1015.0
20260507083242 17 135 6.4 24.1 0.00 0.03 2.34 88 1015.0
20260507082731 17 338 3.2 20.9 0.00 0.03 2.34 89 1014.7
20260507082223 17 158 8.0 17.7 0.00 0.03 2.34 89 1014.6
20260507081711 17 180 4.8 14.5 0.00 0.03 2.34 90 1014.6
20260507080652 17 225 3.2 14.5 0.00 0.03 2.34 90 1014.6
20260507080141 17 203 4.8 14.5 0.03 0.03 2.34 90 1014.6
20260507075633 17 225 3.2 14.5 0.03 0.03 2.34 90 1014.5
20260507075121 17 293 3.2 20.9 0.03 0.03 2.34 89 1014.7
20260507074612 17 158 8.0 20.9 0.03 0.03 2.34 89 1014.8
20260507074101 17 203 4.8 14.5 0.03 0.03 2.34 88 1014.6
20260507073551 17 248 4.8 12.9 0.03 0.03 2.34 89 1014.4
20260507073041 17 203 4.8 12.9 0.03 0.03 2.34 89 1014.6
20260507072533 17 203 3.2 12.9 0.03 0.03 2.34 89 1015.1
20260507072020 18 225 4.8 12.9 0.03 0.03 2.34 89 1014.8
20260507071513 18 158 3.2 11.3 0.03 0.03 2.34 89 1015.0
20260507071001 18 248 3.2 11.3 0.03 0.03 2.34 90 1015.0
20260507070450 18 203 3.2 9.7 0.03 0.03 2.34 89 1015.0
20260507065941 18 248 3.2 9.7 0.00 0.00 2.31 90 1015.0
20260507065430 18 225 3.2 6.4 0.00 0.00 2.31 91 1015.1
20260507064920 18 270 0.0 6.4 0.00 0.00 2.31 91 1015.1
20260507063859 18 135 1.6 6.4 0.00 0.00 2.31 92 1014.8
20260507063347 18 158 1.6 0.0 0.00 0.00 2.31 91 1014.5
20260507063151 18 225 4.8 0.0 0.00 0.00 2.31 91 1014.7
20260507062529 18 225 1.6 9.7 0.03 2.34 2.31 91 1014.8
20260507062019 18 180 3.2 9.7 0.03 2.34 2.31 91 1014.0
20260507061512 18 23 4.8 9.7 0.03 2.34 2.31 91 1013.6
20260507060448 18 203 3.2 9.7 0.03 2.34 2.31 94 1014.7
20260507055938 18 203 1.6 9.7 0.03 2.34 2.31 94 1014.5
20260507055428 18 225 1.6 3.2 0.03 2.34 2.31 94 1014.9
20260507054918 18 225 0.0 3.2 0.03 2.34 2.31 94 1014.8
20260507053347 18 23 0.0 6.4 0.00 2.31 2.29 94 1013.7
20260507052837 18 68 1.6 9.7 0.05 2.31 2.29 94 1013.5
20260507051818 18 23 3.2 6.4 0.10 2.31 2.29 93 1014.3
20260507050757 18 23 4.8 12.9 0.10 2.31 2.29 93 1015.3
20260507050247 18 23 3.2 12.9 0.10 2.31 2.29 92 1015.1
20260507045737 19 45 3.2 9.7 0.10 2.31 2.29 92 1014.8
20260507045227 19 113 1.6 6.4 0.13 2.31 2.29 91 1015.0
20260507044718 19 23 0.0 6.4 0.28 2.31 2.29 90 1014.8
20260507044208 19 68 3.2 6.4 0.86 2.31 2.29 89 1013.2
20260507043146 19 180 3.2 6.4 1.78 2.29 2.26 90 1013.1
20260507042637 19 180 1.6 9.7 1.83 2.26 2.21 90 1013.8
20260507042126 19 248 3.2 9.7 2.18 2.21 2.18 89 1013.6
20260507041616 19 248 1.6 6.4 2.18 2.21 2.18 90 1012.9
20260507040556 19 113 3.2 11.3 2.18 2.21 2.18 89 1011.7
20260507040055 19 225 0.0 11.3 2.18 2.21 2.18 90 1012.8
20260507035536 19 158 4.8 17.7 2.18 2.21 2.18 90 1012.7
20260507034515 20 270 9.7 24.1 1.83 1.85 1.96 92 1012.1
20260507033456 21 248 12.9 25.7 0.66 0.69 0.66 90 1011.3
20260507032945 21 203 4.8 11.3 0.43 0.46 0.48 88 1011.4
20260507032435 22 158 3.2 17.7 0.15 0.18 0.15 83 1011.4
20260507031925 23 203 4.8 17.7 0.00 0.03 0.00 80 1011.4
20260507031415 23 203 4.8 17.7 0.00 0.03 0.00 79 1011.7
20260507030904 23 248 6.4 17.7 0.00 0.03 0.00 79 1011.5
20260507025334 23 135 3.2 14.5 0.00 0.03 0.03 84 1012.0
20260507024315 23 203 3.2 6.4 0.00 0.03 0.03 83 1012.5
20260507023810 23 248 1.6 6.4 0.00 0.03 0.03 84 1011.9
20260507023254 24 0 3.2 6.4 0.00 0.03 0.03 83 1012.1
20260507022743 24 225 0.0 6.4 0.00 0.03 0.03 83 1012.7
20260507022233 24 315 3.2 9.7 0.00 0.03 0.03 83 1012.7
20260507021723 24 293 3.2 9.7 0.00 0.03 0.03 82 1012.9
20260507021212 25 203 3.2 6.4 0.00 0.03 0.03 81 1013.0
20260507020703 25 293 1.6 6.4 0.00 0.03 0.03 80 1013.0
20260507020154 25 203 1.6 9.7 0.00 0.03 0.03 80 1012.9
20260507015644 25 338 3.2 9.7 0.00 0.03 0.03 80 1012.8
20260507015132 25 338 3.2 11.3 0.00 0.03 0.03 80 1013.2
20260507014623 25 0 3.2 11.3 0.00 0.03 0.03 80 1013.0
20260507013604 25 338 4.8 11.3 0.00 0.03 0.03 80 1013.3
20260507013052 25 0 6.4 11.3 0.00 0.03 0.03 80 1012.9
20260507012034 25 315 4.8 11.3 0.00 0.03 0.03 79 1012.9
20260507011523 25 338 6.4 11.3 0.00 0.03 0.03 79 1013.0
20260507011012 25 293 3.2 12.9 0.00 0.03 0.03 80 1012.7
20260507010502 25 315 3.2 12.9 0.00 0.03 0.03 80 1012.8
20260507005951 25 248 3.2 14.5 0.00 0.03 0.03 81 1012.8
20260507005441 25 315 4.8 14.5 0.00 0.03 0.03 80 1012.9
20260507004421 25 0 6.4 14.5 0.00 0.03 0.03 79 1012.6
20260507003911 25 315 8.0 14.5 0.00 0.03 0.03 79 1012.9
20260507003401 25 0 8.0 14.5 0.00 0.03 0.03 78 1012.9
20260507002340 25 23 4.8 11.3 0.00 0.03 0.03 79 1012.8
20260507001830 25 315 4.8 11.3 0.00 0.03 0.03 78 1013.2
20260507001321 25 0 4.8 12.9 0.00 0.03 0.03 78 1013.3
20260507000813 25 23 6.4 12.9 0.00 0.03 0.03 78 1013.4
20260507000301 25 0 3.2 11.3 0.00 0.03 0.03 77 1013.1
20260506235751 25 23 1.6 11.3 0.00 0.03 0.03 77 1013.4
20260506235240 26 0 4.8 14.5 0.00 0.03 0.03 76 1013.2
20260506234729 26 315 6.4 14.5 0.00 0.03 0.03 76 1012.8
20260506234220 26 293 6.4 14.5 0.00 0.03 0.03 76 1012.8
20260506233710 26 338 6.4 14.5 0.00 0.03 0.03 75 1012.9
20260506233201 26 338 4.8 17.7 0.00 0.03 0.03 75 1012.8
20260506232650 26 293 6.4 17.7 0.00 0.03 0.03 75 1012.6
20260506232139 26 315 3.2 12.9 0.00 0.03 0.03 75 1012.3
20260506231629 26 68 1.6 17.7 0.00 0.03 0.03 74 1012.6
20260506231119 26 293 6.4 17.7 0.00 0.03 0.03 74 1012.5
20260506230610 26 270 6.4 20.9 0.00 0.03 0.03 74 1012.1
20260506230059 26 0 6.4 20.9 0.00 0.03 0.03 73 1012.2
20260506225549 26 180 8.0 17.7 0.00 0.03 0.03 73 1012.1